Retour au catalogue

SCOUT G-1 DEB

ActifPO
NORAD 19577·DEBRIS·🇺🇸 United States

Lancé Aug 25, 1988 depuis Vandenberg Space Force Base

Loading…

Prochains Passages (prochaines 24 heures)

TLE

FraisSource: Space-Track

Époque: Sep 14, 2026, 10:09 UTC

1 19577U 88074G   26257.42316159  .00000143  00000-0  22110-3 0  9996
2 19577  90.5001 139.9941 0092342  84.2384  91.0772 13.45320918865530

Suivez SCOUT G-1 DEB en temps réel avec AllMySat

Download on the App Store